Flag for U.S.A. Weather past 2 weeks in Tallahassee, Florida, U.S.A.

Now
82 °F

Broken clouds.


Feels Like: 90 °F
Forecast: 76 / 88 °F
Wind: 3 mph from Southwest

Location: Tallahassee Regional Airport

Current Time: Jul 30, 2015 at 8:10:53 PM

Latest Report: Jul 30, 2015 at 6:53 PM


Visibility: 10 mi

Pressure: 29.89 "Hg

Humidity: 85%

Dew point: 77 °F

Location of TallahasseeLocation

Historic Weather in Tallahassee — Graph

°F

Tallahassee temperature yesterday

Maximum temperature yesterday: 100 °F (at 3:53 PM)
Minimum temperature yesterday: 78 °F (at 11:53 PM)
Average temperature yesterday: 86 °F

Past Weeks' High & Low Weather Summary

 TemperatureHumidityPressure
High100 °F (Jul 29, 3:53 PM)100% (Jul 24, 8:53 PM)30.02 "Hg (Jul 24, 8:53 PM)
Low74 °F (Jul 26, 6:53 AM)37% (Jul 26, 3:53 PM)29.86 "Hg (Jul 21, 5:53 PM)
Average85 °F74%29.94 "Hg
* Reported Jul 15 6:53 PM — Jul 30 6:53 PM, Tallahassee, Weather by CustomWeather, © 2015

Note: Actual official high and low records may vary slightly from our data, if they occured in-between our weather recording intervals... More about our weather records

Advertising

Tallahassee weather history for previous 24 hours

 ConditionsComfort  
Time TempWeatherWind HumidityBarometerVisibility
6:53 PM
Thu, Jul 30
82 °FBroken clouds.3 mph85%29.89 "Hg10 mi
5:53 PM82 °FLight rain. Broken clouds.9 mph85%29.92 "Hg10 mi
4:53 PM82 °FThunderstorms. Partly sunny.13 mph85%29.90 "Hg7 mi
3:59 PM86 °FThunderstorms. Broken clouds.16 mph70%29.91 "Hg10 mi
2:53 PM94 °FPartly sunny.No wind56%29.91 "Hg10 mi
1:53 PM92 °FPartly sunny.3 mph60%29.93 "Hg10 mi
12:53 PM92 °FBroken clouds.5 mph64%29.95 "Hg10 mi
11:53 AM87 °FBroken clouds.No wind75%29.98 "Hg10 mi
10:53 AM85 °FPartly sunny.No wind77%29.99 "Hg10 mi
9:53 AM82 °FBroken clouds.5 mph85%29.98 "Hg10 mi
8:53 AM79 °FFog.No wind90%29.97 "Hg6 mi
7:53 AM78 °FFog.No wind90%29.94 "Hg6 mi
6:53 AM77 °FFog.No wind94%29.93 "Hg6 mi
5:53 AM77 °FPartly cloudy.No wind94%29.94 "Hg8 mi
4:53 AM77 °FClear.3 mph94%29.93 "Hg9 mi
3:53 AM78 °FClear.3 mph90%29.93 "Hg9 mi
3:01 AM78 °FPassing clouds.3 mph90%29.96 "Hg9 mi
1:53 AM78 °FClear.6 mph90%29.96 "Hg10 mi
12:53 AM78 °FClear.No wind90%29.96 "Hg10 mi
11:53 PM
Wed, Jul 29
78 °FLight rain. Passing clouds.5 mph90%29.97 "Hg10 mi
10:53 PM79 °FRain. Fog.3 mph88%29.99 "Hg6 mi
9:53 PM79 °FThunderstorms. Overcast.3 mph88%29.98 "Hg10 mi
8:53 PM79 °FThunderstorms. Cloudy.8 mph90%29.97 "Hg10 mi
Weather by CustomWeather, © 2015

See weather overviewHow to use our weather pages